User: anonymous   Login
Location: Franzen
(48.6167°N, 15.3833°E)
Time: 16:57:12
(UTC+00:00)
Language:

FALCON 9 DEB - Orbit

View from above orbital plane
View from above orbital plane
View from above satellite
View from above satellite

Ground track
Ground track

The orbit data is extracted from the following two-line orbital elements,

1 44295U 19029BN  21167.10316138  .00002318  00000-0  55270-4 0  9992
2 44295  52.9993 186.7977 0009145 145.1995 214.9611 15.46125305117703
Epoch (UTC): 16 June 2021 02:28:33
Eccentricity: 0.0009145
inclination: 52.9993°
perigee height: 422 km
apogee height: 434 km
right ascension of ascending node: 186.7977°
argument of perigee: 145.1995°
revolutions per day: 15.46125305
mean anomaly at epoch: 214.9611°
orbit number at epoch: 11770

The dashed part of the orbit path shows where the satellite is in the earth's shadow,  

DLR